| time (UTC) | temp F | wind direction | speed MPH | gust MPH | rain 1hr in | rain 24hr in | rain mn in | humidity % | barometer mb |
| 20260505125013 | 58 | 269 | 4.0 | 4.0 | 0.00 | 0.67 | 0.67 | 89 | 1008.2 |
| 20260505124509 | 58 | 274 | 2.0 | 2.0 | 0.00 | 0.67 | 0.67 | 89 | 1008.3 |
| 20260505124006 | 58 | 261 | 2.0 | 2.0 | 0.00 | 0.67 | 0.67 | 90 | 1008.3 |
| 20260505123503 | 58 | 212 | 2.0 | 3.0 | 0.00 | 0.67 | 0.67 | 90 | 1008.2 |
| 20260505122958 | 58 | 314 | 3.0 | 4.0 | 0.00 | 0.67 | 0.67 | 90 | 1008.0 |
| 20260505122456 | 58 | 216 | 2.0 | 3.0 | 0.00 | 0.67 | 0.67 | 91 | 1008.1 |
| 20260505121952 | 58 | 311 | 1.0 | 1.0 | 0.00 | 0.67 | 0.67 | 91 | 1008.1 |
| 20260505121449 | 57 | 288 | 6.0 | 8.0 | 0.00 | 0.67 | 0.67 | 91 | 1008.2 |
| 20260505120945 | 57 | 185 | 3.0 | 4.0 | 0.00 | 0.67 | 0.67 | 92 | 1008.0 |
| 20260505120442 | 57 | 236 | 3.0 | 4.0 | 0.00 | 0.67 | 0.67 | 92 | 1008.0 |
| 20260505115941 | 57 | 300 | 1.0 | 2.0 | 0.00 | 0.67 | 0.67 | 93 | 1008.1 |
| 20260505115438 | 57 | 320 | 4.0 | 6.0 | 0.00 | 0.67 | 0.67 | 93 | 1008.0 |
| 20260505114936 | 56 | 274 | 2.0 | 2.0 | 0.00 | 0.67 | 0.67 | 93 | 1007.9 |
| 20260505114431 | 56 | 300 | 2.0 | 2.0 | 0.00 | 0.67 | 0.67 | 94 | 1007.8 |
| 20260505113928 | 56 | 265 | 4.0 | 4.0 | 0.00 | 0.67 | 0.67 | 94 | 1007.6 |
| 20260505113425 | 56 | 218 | 4.0 | 7.0 | 0.00 | 0.67 | 0.67 | 94 | 1007.4 |
| 20260505112920 | 56 | 287 | 2.0 | 2.0 | 0.00 | 0.67 | 0.67 | 94 | 1007.4 |
| 20260505112418 | 56 | 237 | 3.0 | 7.0 | 0.00 | 0.67 | 0.67 | 95 | 1007.4 |
| 20260505111914 | 56 | 169 | 2.0 | 4.0 | 0.00 | 0.67 | 0.67 | 95 | 1007.2 |
| 20260505111409 | 55 | 172 | 5.0 | 8.0 | 0.00 | 0.67 | 0.67 | 95 | 1007.2 |
| 20260505110906 | 55 | 330 | 0.0 | 1.0 | 0.00 | 0.67 | 0.67 | 95 | 1007.3 |
| 20260505110403 | 55 | 276 | 1.0 | 1.0 | 0.00 | 0.67 | 0.67 | 95 | 1007.1 |
| 20260505101833 | 55 | 156 | 1.0 | 1.0 | 0.00 | 0.67 | 0.67 | 95 | 1007.1 |
| 20260505101328 | 55 | 268 | 1.0 | 1.0 | 0.00 | 0.67 | 0.67 | 95 | 1007.0 |
| 20260505100824 | 55 | 220 | 4.0 | 4.0 | 0.00 | 0.67 | 0.67 | 95 | 1007.0 |
| 20260505100321 | 55 | 337 | 1.0 | 2.0 | 0.00 | 0.67 | 0.67 | 95 | 1006.8 |
| 20260505095817 | 55 | 304 | 1.0 | 2.0 | 0.00 | 0.67 | 0.67 | 95 | 1006.5 |
| 20260505095315 | 55 | 195 | 2.0 | 2.0 | 0.00 | 0.67 | 0.67 | 95 | 1006.3 |
| 20260505094810 | 55 | 290 | 2.0 | 4.0 | 0.00 | 0.67 | 0.67 | 95 | 1006.5 |
| 20260505094307 | 55 | 205 | 3.0 | 4.0 | 0.00 | 0.67 | 0.67 | 96 | 1006.9 |
| 20260505093803 | 55 | 194 | 2.0 | 3.0 | 0.00 | 0.67 | 0.67 | 96 | 1006.6 |
| 20260505093301 | 55 | 317 | 1.0 | 1.0 | 0.00 | 0.67 | 0.67 | 96 | 1006.6 |
| 20260505092757 | 55 | 236 | 2.0 | 2.0 | 0.00 | 0.67 | 0.67 | 96 | 1006.3 |
| 20260505092256 | 55 | 227 | 2.0 | 4.0 | 0.00 | 0.67 | 0.67 | 96 | 1006.4 |
| 20260505091752 | 55 | 95 | 1.0 | 2.0 | 0.00 | 0.67 | 0.67 | 96 | 1006.1 |
| 20260505091251 | 55 | 54 | 2.0 | 3.0 | 0.00 | 0.67 | 0.67 | 96 | 1005.8 |
| 20260505090748 | 55 | 130 | 3.0 | 6.0 | 0.00 | 0.67 | 0.67 | 96 | 1006.1 |
| 20260505090246 | 55 | 237 | 5.0 | 9.0 | 0.00 | 0.67 | 0.67 | 96 | 1006.3 |
| 20260505085743 | 55 | 84 | 2.0 | 3.0 | 0.00 | 0.67 | 0.67 | 96 | 1005.7 |
| 20260505085242 | 55 | 144 | 2.0 | 4.0 | 0.00 | 0.67 | 0.67 | 96 | 1005.7 |
| 20260505084738 | 55 | 145 | 5.0 | 7.0 | 0.00 | 0.67 | 0.67 | 96 | 1005.7 |
| 20260505084238 | 55 | 162 | 4.0 | 6.0 | 0.07 | 0.67 | 0.67 | 96 | 1005.1 |
| 20260505083734 | 55 | 125 | 3.0 | 4.0 | 0.19 | 0.67 | 0.67 | 96 | 1004.9 |
| 20260505083231 | 55 | 119 | 7.0 | 10.0 | 0.24 | 0.66 | 0.66 | 96 | 1006.1 |
| 20260505082726 | 56 | 115 | 5.0 | 7.0 | 0.24 | 0.64 | 0.64 | 96 | 1006.6 |
| 20260505082224 | 56 | 152 | 4.0 | 6.0 | 0.24 | 0.62 | 0.62 | 96 | 1007.3 |
| 20260505081720 | 56 | 53 | 1.0 | 1.0 | 0.24 | 0.61 | 0.61 | 96 | 1007.7 |
| 20260505081218 | 56 | 155 | 3.0 | 4.0 | 0.24 | 0.58 | 0.58 | 96 | 1007.9 |
| 20260505080714 | 56 | 299 | 1.0 | 1.0 | 0.26 | 0.57 | 0.57 | 96 | 1007.8 |
| 20260505080210 | 56 | 244 | 1.0 | 1.0 | 0.19 | 0.54 | 0.54 | 96 | 1008.1 |
| 20260505075706 | 56 | 22 | 1.0 | 1.0 | 0.24 | 0.53 | 0.53 | 96 | 1007.9 |
| 20260505075203 | 56 | 287 | 1.0 | 1.0 | 0.35 | 0.51 | 0.51 | 96 | 1008.3 |
| 20260505074700 | 56 | 301 | 2.0 | 2.0 | 0.35 | 0.49 | 0.49 | 95 | 1008.1 |
| 20260505074157 | 56 | 355 | 0.0 | 0.0 | 0.26 | 0.46 | 0.46 | 95 | 1008.0 |
| 20260505073654 | 56 | 251 | 1.0 | 2.0 | 0.26 | 0.44 | 0.44 | 95 | 1008.0 |
| 20260505073153 | 56 | 306 | 0.0 | 0.0 | 0.28 | 0.42 | 0.42 | 95 | 1008.2 |
| 20260505072648 | 56 | 306 | 1.0 | 1.0 | 0.35 | 0.40 | 0.40 | 95 | 1008.6 |
| 20260505072145 | 56 | 291 | 2.0 | 2.0 | 0.35 | 0.37 | 0.37 | 95 | 1008.5 |
| 20260505071640 | 56 | 278 | 1.0 | 2.0 | 0.31 | 0.34 | 0.34 | 95 | 1008.3 |
| 20260505071138 | 56 | 303 | 1.0 | 1.0 | 0.26 | 0.31 | 0.31 | 95 | 1007.9 |
| 20260505070635 | 56 | 297 | 0.0 | 1.0 | 0.24 | 0.29 | 0.29 | 94 | 1007.7 |
| 20260505070132 | 56 | 11 | 0.0 | 0.0 | 0.17 | 0.27 | 0.27 | 94 | 1007.5 |
| 20260505065628 | 56 | 48 | 1.0 | 1.0 | 0.05 | 0.25 | 0.25 | 94 | 1007.5 |
| 20260505065124 | 56 | 12 | 1.0 | 1.0 | 0.12 | 0.24 | 0.24 | 94 | 1007.5 |
| 20260505064621 | 56 | 22 | 1.0 | 1.0 | 0.12 | 0.24 | 0.24 | 94 | 1007.3 |
| 20260505064120 | 56 | 191 | 1.0 | 1.0 | 0.05 | 0.23 | 0.23 | 93 | 1007.7 |
| 20260505063617 | 56 | 298 | 0.0 | 0.0 | 0.07 | 0.22 | 0.22 | 93 | 1008.0 |
| 20260505063112 | 56 | 236 | 1.0 | 1.0 | 0.31 | 0.22 | 0.22 | 92 | 1007.5 |
| 20260505062609 | 56 | 66 | 2.0 | 2.0 | 0.35 | 0.21 | 0.21 | 92 | 1007.4 |
| 20260505062107 | 56 | 13 | 0.0 | 0.0 | 0.24 | 0.17 | 0.17 | 92 | 1008.0 |
| 20260505061604 | 56 | 306 | 0.0 | 0.0 | 0.19 | 0.15 | 0.15 | 91 | 1008.0 |
| 20260505061102 | 56 | 277 | 1.0 | 1.0 | 0.17 | 0.14 | 0.14 | 91 | 1008.3 |
| 20260505060559 | 56 | 334 | 1.0 | 2.0 | 0.12 | 0.12 | 0.12 | 90 | 1008.2 |
| 20260505060056 | 56 | 308 | 6.0 | 7.0 | 0.12 | 0.11 | 0.11 | 90 | 1008.1 |
| 20260505055551 | 57 | 352 | 2.0 | 3.0 | 0.12 | 0.10 | 0.10 | 89 | 1008.1 |
| 20260505055048 | 57 | 357 | 5.0 | 7.0 | 0.26 | 0.09 | 0.09 | 88 | 1008.1 |
| 20260505054545 | 57 | 354 | 7.0 | 10.0 | 0.19 | 0.08 | 0.08 | 86 | 1008.4 |
| 20260505054043 | 59 | 303 | 12.0 | 16.0 | 0.12 | 0.06 | 0.06 | 81 | 1008.3 |
| 20260505053540 | 61 | 239 | 7.0 | 9.0 | 0.17 | 0.05 | 0.05 | 78 | 1008.1 |
| 20260505053037 | 62 | 312 | 8.0 | 11.0 | 0.24 | 0.04 | 0.04 | 74 | 1007.7 |
| 20260505052534 | 65 | 314 | 4.0 | 7.0 | 0.12 | 0.02 | 0.02 | 70 | 1007.6 |
| 20260505052031 | 67 | 286 | 13.0 | 15.0 | 0.00 | 0.00 | 0.00 | 57 | 1007.1 |
| 20260505051527 | 69 | 236 | 14.0 | 18.0 | 0.00 | 0.00 | 0.00 | 53 | 1005.7 |
| 20260505051026 | 69 | 317 | 13.0 | 18.0 | 0.00 | 0.00 | 0.00 | 47 | 1005.2 |
| 20260505050524 | 69 | 217 | 18.0 | 27.0 | 0.00 | 0.00 | 0.00 | 46 | 1004.7 |
| 20260505041451 | 69 | 309 | 5.0 | 6.0 | 0.00 | 0.00 | 0.00 | 44 | 1004.2 |
| 20260505040948 | 69 | 217 | 5.0 | 8.0 | 0.00 | 0.00 | 0.00 | 44 | 1003.9 |
| 20260505040446 | 69 | 223 | 5.0 | 7.0 | 0.00 | 0.00 | 0.00 | 45 | 1003.9 |
| 20260505035943 | 69 | 162 | 4.0 | 6.0 | 0.00 | 0.00 | 0.00 | 45 | 1004.0 |
| 20260505035439 | 69 | 227 | 4.0 | 4.0 | 0.00 | 0.00 | 0.00 | 45 | 1003.9 |
| 20260505034936 | 69 | 193 | 5.0 | 7.0 | 0.00 | 0.00 | 0.00 | 45 | 1004.1 |
| 20260505034432 | 69 | 219 | 5.0 | 6.0 | 0.00 | 0.00 | 0.00 | 45 | 1003.9 |
| 20260505033930 | 69 | 193 | 6.0 | 8.0 | 0.00 | 0.00 | 0.00 | 46 | 1004.3 |
| 20260505033426 | 69 | 266 | 3.0 | 4.0 | 0.00 | 0.00 | 0.00 | 46 | 1004.2 |
| 20260505032924 | 69 | 260 | 1.0 | 2.0 | 0.00 | 0.00 | 0.00 | 46 | 1004.3 |
| 20260505032421 | 69 | 125 | 2.0 | 3.0 | 0.00 | 0.00 | 0.00 | 46 | 1004.3 |
| 20260505031918 | 69 | 238 | 7.0 | 9.0 | 0.00 | 0.00 | 0.00 | 46 | 1004.5 |
| 20260505031415 | 69 | 280 | 2.0 | 3.0 | 0.00 | 0.00 | 0.00 | 46 | 1004.5 |
| 20260505030912 | 70 | 187 | 3.0 | 3.0 | 0.00 | 0.00 | 0.00 | 46 | 1004.4 |
| 20260505030408 | 70 | 221 | 5.0 | 8.0 | 0.00 | 0.00 | 0.00 | 45 | 1004.5 |
| 20260505025903 | 70 | 158 | 2.0 | 3.0 | 0.00 | 0.00 | 0.00 | 45 | 1004.5 |
| 20260505025401 | 70 | 265 | 2.0 | 3.0 | 0.00 | 0.00 | 0.00 | 45 | 1004.6 |
| 20260505024900 | 70 | 83 | 3.0 | 3.0 | 0.00 | 0.00 | 0.00 | 44 | 1004.6 |
| 20260505024357 | 71 | 189 | 3.0 | 4.0 | 0.00 | 0.00 | 0.00 | 44 | 1004.3 |
| 20260505023854 | 71 | 217 | 5.0 | 8.0 | 0.00 | 0.00 | 0.00 | 44 | 1004.6 |
| 20260505023351 | 71 | 201 | 6.0 | 8.0 | 0.00 | 0.00 | 0.00 | 44 | 1004.6 |
| 20260505022848 | 71 | 232 | 4.0 | 4.0 | 0.00 | 0.00 | 0.00 | 44 | 1004.6 |
| 20260505022345 | 71 | 203 | 5.0 | 6.0 | 0.00 | 0.00 | 0.00 | 44 | 1004.6 |
| 20260505021842 | 71 | 301 | 3.0 | 4.0 | 0.00 | 0.00 | 0.00 | 45 | 1004.6 |
| 20260505021338 | 71 | 154 | 2.0 | 3.0 | 0.00 | 0.00 | 0.00 | 44 | 1004.7 |
| 20260505020834 | 71 | 172 | 6.0 | 8.0 | 0.00 | 0.00 | 0.00 | 44 | 1004.6 |
| 20260505020330 | 71 | 217 | 7.0 | 9.0 | 0.00 | 0.00 | 0.00 | 44 | 1004.6 |
| 20260505015827 | 71 | 240 | 3.0 | 3.0 | 0.00 | 0.00 | 0.00 | 45 | 1004.6 |
| 20260505015324 | 71 | 263 | 5.0 | 7.0 | 0.00 | 0.00 | 0.00 | 45 | 1004.4 |
| 20260505014821 | 71 | 159 | 5.0 | 7.0 | 0.00 | 0.00 | 0.00 | 45 | 1004.3 |
| 20260505014318 | 71 | 251 | 5.0 | 10.0 | 0.00 | 0.00 | 0.00 | 45 | 1004.4 |
| 20260505013815 | 71 | 297 | 2.0 | 3.0 | 0.00 | 0.00 | 0.00 | 45 | 1004.2 |
| 20260505013312 | 71 | 238 | 5.0 | 6.0 | 0.00 | 0.00 | 0.00 | 45 | 1004.1 |
| 20260505012811 | 71 | 233 | 4.0 | 4.0 | 0.00 | 0.00 | 0.00 | 45 | 1004.0 |
| 20260505012308 | 71 | 270 | 3.0 | 3.0 | 0.00 | 0.00 | 0.00 | 45 | 1003.9 |
| 20260505011803 | 72 | 315 | 2.0 | 3.0 | 0.00 | 0.00 | 0.00 | 45 | 1004.0 |
| 20260505011301 | 72 | 341 | 4.0 | 4.0 | 0.00 | 0.00 | 0.00 | 45 | 1003.9 |
| 20260505010756 | 72 | 302 | 2.0 | 2.0 | 0.00 | 0.00 | 0.00 | 45 | 1003.7 |
| 20260505010253 | 71 | 248 | 9.0 | 10.0 | 0.00 | 0.00 | 0.00 | 45 | 1003.4 |
| 20260505005749 | 71 | 217 | 5.0 | 7.0 | 0.00 | 0.00 | 0.00 | 45 | 1003.7 |
| 20260505005246 | 72 | 188 | 5.0 | 7.0 | 0.00 | 0.00 | 0.00 | 45 | 1003.4 |
| 20260505004743 | 72 | 193 | 3.0 | 3.0 | 0.00 | 0.00 | 0.00 | 45 | 1003.4 |
| 20260505004239 | 72 | 271 | 5.0 | 8.0 | 0.00 | 0.00 | 0.00 | 44 | 1003.4 |
| 20260505003737 | 72 | 293 | 2.0 | 3.0 | 0.00 | 0.00 | 0.00 | 44 | 1003.4 |
| 20260505003235 | 73 | 198 | 5.0 | 8.0 | 0.00 | 0.00 | 0.00 | 43 | 1003.3 |
| 20260505002730 | 73 | 211 | 3.0 | 4.0 | 0.00 | 0.00 | 0.00 | 43 | 1003.3 |
| 20260505002228 | 73 | 240 | 4.0 | 7.0 | 0.00 | 0.00 | 0.00 | 42 | 1003.3 |
| 20260505001725 | 74 | 264 | 5.0 | 7.0 | 0.00 | 0.00 | 0.00 | 41 | 1003.2 |
| 20260505001223 | 74 | 209 | 4.0 | 6.0 | 0.00 | 0.00 | 0.00 | 40 | 1003.2 |
| 20260505000720 | 74 | 213 | 8.0 | 11.0 | 0.00 | 0.00 | 0.00 | 40 | 1003.4 |
| 20260505000218 | 75 | 161 | 3.0 | 4.0 | 0.00 | 0.00 | 0.00 | 39 | 1003.4 |
| 20260504235714 | 75 | 198 | 4.0 | 6.0 | 0.00 | 0.00 | 0.00 | 39 | 1003.5 |
| 20260504235210 | 75 | 261 | 2.0 | 3.0 | 0.00 | 0.00 | 0.00 | 38 | 1003.7 |
| 20260504234708 | 75 | 207 | 11.0 | 17.0 | 0.00 | 0.00 | 0.00 | 37 | 1003.5 |
| 20260504234205 | 75 | 258 | 9.0 | 15.0 | 0.00 | 0.00 | 0.00 | 37 | 1004.0 |
| 20260504233700 | 76 | 226 | 11.0 | 16.0 | 0.00 | 0.00 | 0.00 | 36 | 1003.9 |
| 20260504233156 | 76 | 279 | 5.0 | 8.0 | 0.00 | 0.00 | 0.00 | 36 | 1003.9 |
| 20260504232654 | 76 | 251 | 5.0 | 9.0 | 0.00 | 0.00 | 0.00 | 36 | 1004.0 |
| 20260504232151 | 76 | 232 | 5.0 | 7.0 | 0.00 | 0.00 | 0.00 | 36 | 1004.1 |
| 20260504231648 | 76 | 233 | 8.0 | 16.0 | 0.00 | 0.00 | 0.00 | 35 | 1003.9 |
| 20260504231144 | 76 | 308 | 7.0 | 10.0 | 0.00 | 0.00 | 0.00 | 35 | 1004.0 |
| 20260504230640 | 77 | 239 | 10.0 | 14.0 | 0.00 | 0.00 | 0.00 | 34 | 1004.2 |
| 20260504230139 | 77 | 234 | 9.0 | 13.0 | 0.00 | 0.00 | 0.00 | 35 | 1004.3 |
| 20260504225637 | 77 | 231 | 8.0 | 11.0 | 0.00 | 0.00 | 0.00 | 36 | 1004.4 |
| 20260504225133 | 76 | 243 | 5.0 | 7.0 | 0.00 | 0.00 | 0.00 | 39 | 1004.6 |
| 20260504224630 | 76 | 236 | 10.0 | 14.0 | 0.00 | 0.00 | 0.00 | 39 | 1004.4 |
| 20260504224127 | 77 | 226 | 8.0 | 10.0 | 0.00 | 0.00 | 0.00 | 39 | 1004.4 |
| 20260504223624 | 77 | 341 | 3.0 | 4.0 | 0.00 | 0.00 | 0.00 | 41 | 1004.2 |
| 20260504223120 | 76 | 205 | 7.0 | 10.0 | 0.00 | 0.00 | 0.00 | 41 | 1004.4 |
| 20260504222616 | 76 | 220 | 6.0 | 9.0 | 0.00 | 0.00 | 0.00 | 44 | 1004.3 |
| 20260504222114 | 76 | 214 | 4.0 | 8.0 | 0.00 | 0.00 | 0.00 | 45 | 1004.5 |
| 20260504221611 | 76 | 233 | 8.0 | 11.0 | 0.00 | 0.00 | 0.00 | 45 | 1004.7 |
| 20260504221108 | 75 | 230 | 4.0 | 6.0 | 0.00 | 0.00 | 0.00 | 47 | 1004.9 |
| 20260504220604 | 74 | 238 | 2.0 | 3.0 | 0.00 | 0.00 | 0.00 | 48 | 1004.7 |
| 20260504215558 | 73 | 348 | 1.0 | 3.0 | 0.00 | 0.00 | 0.00 | 50 | 1004.6 |
| 20260504215055 | 73 | 158 | 2.0 | 3.0 | 0.00 | 0.00 | 0.00 | 50 | 1004.7 |
| 20260504214551 | 74 | 264 | 4.0 | 7.0 | 0.00 | 0.00 | 0.00 | 49 | 1005.1 |
| 20260504214048 | 74 | 247 | 7.0 | 11.0 | 0.00 | 0.00 | 0.00 | 49 | 1005.1 |
| 20260504213544 | 75 | 136 | 2.0 | 3.0 | 0.00 | 0.00 | 0.00 | 48 | 1004.8 |
| 20260504213041 | 74 | 211 | 6.0 | 9.0 | 0.00 | 0.00 | 0.00 | 48 | 1004.9 |
| 20260504212537 | 74 | 219 | 3.0 | 3.0 | 0.00 | 0.00 | 0.00 | 48 | 1005.1 |
| 20260504212035 | 72 | 196 | 4.0 | 4.0 | 0.00 | 0.00 | 0.00 | 50 | 1005.1 |
| 20260504211531 | 71 | 177 | 4.0 | 6.0 | 0.00 | 0.00 | 0.00 | 52 | 1005.2 |
| 20260504211028 | 71 | 249 | 6.0 | 8.0 | 0.00 | 0.00 | 0.00 | 52 | 1005.4 |
| 20260504210525 | 70 | 284 | 4.0 | 7.0 | 0.00 | 0.00 | 0.00 | 55 | 1005.4 |
| 20260504210022 | 69 | 303 | 4.0 | 7.0 | 0.00 | 0.00 | 0.00 | 57 | 1005.5 |
| 20260504205520 | 69 | 227 | 2.0 | 4.0 | 0.00 | 0.00 | 0.00 | 57 | 1005.6 |
| 20260504205018 | 69 | 43 | 3.0 | 4.0 | 0.00 | 0.00 | 0.00 | 59 | 1005.8 |
| 20260504204515 | 68 | 238 | 8.0 | 11.0 | 0.00 | 0.00 | 0.00 | 58 | 1005.8 |
| 20260504204014 | 68 | 223 | 4.0 | 7.0 | 0.00 | 0.00 | 0.00 | 59 | 1005.6 |
| 20260504203512 | 68 | 202 | 6.0 | 11.0 | 0.00 | 0.00 | 0.00 | 58 | 1005.8 |
| 20260504203009 | 68 | 235 | 9.0 | 14.0 | 0.00 | 0.00 | 0.00 | 58 | 1005.7 |
| 20260504202504 | 68 | 239 | 6.0 | 9.0 | 0.00 | 0.00 | 0.00 | 58 | 1005.6 |
| 20260504202001 | 68 | 148 | 6.0 | 9.0 | 0.00 | 0.00 | 0.00 | 58 | 1005.7 |
| 20260504201458 | 68 | 210 | 9.0 | 10.0 | 0.00 | 0.00 | 0.00 | 57 | 1005.7 |
| 20260504200956 | 69 | 272 | 16.0 | 21.0 | 0.00 | 0.00 | 0.00 | 55 | 1005.9 |
| 20260504200453 | 69 | 277 | 7.0 | 9.0 | 0.00 | 0.00 | 0.00 | 53 | 1005.8 |
| 20260504195949 | 69 | 238 | 6.0 | 8.0 | 0.00 | 0.00 | 0.00 | 51 | 1005.8 |
| 20260504195445 | 69 | 235 | 11.0 | 14.0 | 0.00 | 0.00 | 0.00 | 51 | 1005.8 |
| 20260504194942 | 69 | 282 | 7.0 | 8.0 | 0.00 | 0.00 | 0.00 | 54 | 1005.7 |
| 20260504194438 | 68 | 226 | 6.0 | 9.0 | 0.00 | 0.00 | 0.00 | 54 | 1005.9 |
| 20260504193934 | 68 | 241 | 6.0 | 8.0 | 0.00 | 0.00 | 0.00 | 55 | 1005.9 |
| 20260504193432 | 68 | 296 | 4.0 | 6.0 | 0.00 | 0.00 | 0.00 | 55 | 1006.0 |
| 20260504192930 | 69 | 233 | 5.0 | 7.0 | 0.00 | 0.00 | 0.00 | 54 | 1005.9 |
| 20260504192427 | 70 | 220 | 9.0 | 11.0 | 0.00 | 0.00 | 0.00 | 48 | 1006.4 |
| 20260504191926 | 70 | 272 | 6.0 | 13.0 | 0.00 | 0.00 | 0.00 | 48 | 1006.3 |
| 20260504191424 | 70 | 278 | 5.0 | 8.0 | 0.00 | 0.00 | 0.00 | 48 | 1006.4 |
| 20260504190919 | 70 | 231 | 12.0 | 15.0 | 0.00 | 0.00 | 0.00 | 48 | 1006.4 |
| 20260504190414 | 70 | 237 | 6.0 | 11.0 | 0.00 | 0.00 | 0.00 | 49 | 1006.4 |
| 20260504185911 | 70 | 245 | 6.0 | 8.0 | 0.00 | 0.00 | 0.00 | 49 | 1006.4 |
| 20260504185409 | 70 | 267 | 10.0 | 15.0 | 0.00 | 0.00 | 0.00 | 49 | 1006.6 |
| 20260504184904 | 70 | 233 | 4.0 | 7.0 | 0.00 | 0.00 | 0.00 | 50 | 1006.8 |
| 20260504184400 | 70 | 248 | 7.0 | 8.0 | 0.00 | 0.00 | 0.00 | 50 | 1007.0 |
| 20260504183856 | 70 | 284 | 6.0 | 9.0 | 0.00 | 0.00 | 0.00 | 50 | 1007.1 |
| 20260504183354 | 70 | 330 | 8.0 | 11.0 | 0.00 | 0.00 | 0.00 | 51 | 1006.8 |
| 20260504182851 | 70 | 221 | 12.0 | 22.0 | 0.00 | 0.00 | 0.00 | 49 | 1006.9 |
| 20260504182348 | 71 | 229 | 6.0 | 11.0 | 0.00 | 0.00 | 0.00 | 49 | 1007.3 |
| 20260504181845 | 71 | 215 | 14.0 | 17.0 | 0.00 | 0.00 | 0.00 | 48 | 1007.0 |
| 20260504181343 | 71 | 236 | 7.0 | 10.0 | 0.00 | 0.00 | 0.00 | 48 | 1006.9 |
| 20260504180841 | 71 | 234 | 9.0 | 13.0 | 0.00 | 0.00 | 0.00 | 47 | 1007.3 |
| 20260504180339 | 71 | 323 | 12.0 | 15.0 | 0.00 | 0.00 | 0.00 | 47 | 1006.8 |
| 20260504175838 | 71 | 245 | 4.0 | 7.0 | 0.00 | 0.00 | 0.00 | 47 | 1006.6 |
| 20260504175334 | 72 | 274 | 12.0 | 16.0 | 0.00 | 0.00 | 0.00 | 45 | 1006.4 |
| 20260504174832 | 74 | 288 | 9.0 | 13.0 | 0.00 | 0.00 | 0.00 | 43 | 1006.4 |
| 20260504174329 | 74 | 266 | 8.0 | 11.0 | 0.00 | 0.00 | 0.00 | 45 | 1006.6 |
| 20260504173826 | 74 | 240 | 6.0 | 8.0 | 0.00 | 0.00 | 0.00 | 45 | 1006.4 |
| 20260504173323 | 73 | 244 | 11.0 | 13.0 | 0.00 | 0.00 | 0.00 | 44 | 1006.6 |
| 20260504172820 | 74 | 208 | 14.0 | 18.0 | 0.00 | 0.00 | 0.00 | 44 | 1006.4 |
| 20260504172316 | 73 | 231 | 6.0 | 9.0 | 0.00 | 0.00 | 0.00 | 47 | 1006.1 |
| 20260504171812 | 73 | 210 | 8.0 | 11.0 | 0.00 | 0.00 | 0.00 | 46 | 1006.3 |
| 20260504171310 | 72 | 235 | 6.0 | 13.0 | 0.00 | 0.00 | 0.00 | 49 | 1006.6 |
| 20260504170807 | 72 | 232 | 11.0 | 13.0 | 0.00 | 0.00 | 0.00 | 48 | 1006.4 |
| 20260504170304 | 72 | 230 | 9.0 | 14.0 | 0.00 | 0.00 | 0.00 | 48 | 1006.5 |
| 20260504160222 | 70 | 229 | 6.0 | 7.0 | 0.00 | 0.00 | 0.00 | 49 | 1007.2 |
| 20260504151150 | 69 | 232 | 7.0 | 10.0 | 0.00 | 0.00 | 0.00 | 52 | 1007.7 |
| 20260504150647 | 68 | 217 | 4.0 | 8.0 | 0.00 | 0.00 | 0.00 | 54 | 1007.8 |
| 20260504150144 | 67 | 218 | 5.0 | 8.0 | 0.00 | 0.00 | 0.00 | 55 | 1007.7 |
| 20260504141113 | 63 | 252 | 3.0 | 4.0 | 0.00 | 0.00 | 0.00 | 61 | 1008.1 |
| 20260504140610 | 62 | 238 | 4.0 | 4.0 | 0.00 | 0.00 | 0.00 | 62 | 1008.4 |
| 20260504140105 | 62 | 255 | 5.0 | 7.0 | 0.00 | 0.00 | 0.00 | 62 | 1008.2 |